[[{"header":{"parameterUnit":"m.s-1","parameterCategory":2,"la1":30.2991,"la2":30.254,"lo1":-89.0895,"lo2":-89.0444,"dy":0.0017,"dx":0.0017,"nx":28,"ny":28,"refTime":"2024-12-02T03:00:00:Z","depth":"0","parameterNumber":2,"parameterNumberName":"U-component_of_CURRENTS"},"data":[0,0,0,0,0,0,0,0,0,0,0,0,0,0,0,0,0,0,0,0,0,0,0,0,0,0,0,0,0,0,0,0,0,0,0,0,0,0,0,0,0,0,0,0,0,0,0,0,0,0,0,0,0,0,0,0,0,0,-0.2267,-0.2268,0,-0.2311,-0.2311,-0.2312,-0.2276,-0.2275,-0.2273,-0.2272,-0.2242,-0.2243,-0.2243,0,0,0,0,0,0,0,0,0,0,0,0,0,-0.216,-0.2162,-0.2267,-0.2268,-0.2269,-0.2311,-0.2311,-0.2312,-0.2276,-0.2275,-0.2273,-0.2271,-0.2242,-0.2243,-0.2243,0,0,0,0,0,0,0,0,0,0,0,0,0,-0.2203,-0.2163,-0.2267,-0.2258,-0.2258,-0.2311,-0.2311,-0.2312,-0.2276,-0.2274,-0.2273,-0.2271,-0.2242,-0.2243,-0.2243,-0.2286,0,0,-0.2245,-0.2245,0,0,0,0,0,0,0,0,-0.2201,-0.2207,-0.2259,-0.2259,-0.2258,-0.2288,-0.2263,-0.23,-0.2277,-0.2267,-0.2272,-0.227,-0.2254,-0.2253,-0.2264,-0.2285,-0.2283,-0.2245,-0.2246,-0.2246,-0.2246,0,0,0,0,0,0,0,-0.2198,-0.2205,-0.2282,-0.226,-0.226,-0.2254,-0.2258,-0.227,-0.2268,-0.2268,-0.2266,-0.2275,-0.2253,-0.2263,-0.2262,-0.2283,-0.2245,-0.2246,-0.2246,-0.2246,-0.2319,-0.2321,0,0,0,0,0,0,-0.22,-0.2203,-0.2281,-0.2284,-0.2227,-0.2258,-0.2262,-0.2279,-0.2269,-0.2267,-0.2276,-0.2273,-0.2263,-0.2262,-0.2261,-0.2288,-0.2246,-0.2246,-0.2247,-0.2318,-0.232,-0.2321,0,0,0,0,0,0,-0.2197,-0.2206,-0.2279,-0.2245,-0.2254,-0.2262,-0.2281,-0.2281,-0.2283,-0.2277,-0.2272,-0.2278,-0.2262,-0.226,-0.2273,-0.2287,-0.2247,-0.2247,-0.2316,-0.2318,-0.232,-0.2356,0,0,0,0,0,0,-0.2194,-0.2206,-0.2215,-0.2246,-0.2256,-0.231,-0.2283,-0.2283,-0.2293,-0.2289,-0.2278,-0.2273,-0.226,-0.2273,-0.2274,-0.2287,-0.2248,-0.2314,-0.2317,-0.232,-0.2353,-0.2359,-0.2364,0,0,0,0,0,-0.219,-0.221,-0.2215,-0.2224,-0.227,-0.2311,-0.2316,-0.2312,-0.2295,-0.2305,-0.2298,-0.2273,-0.2292,-0.2275,-0.2276,-0.2289,-0.2312,-0.2316,-0.2319,-0.235,-0.2358,-0.2364,0,0,0,0,0,0,-0.2166,-0.221,-0.2215,-0.2247,-0.2277,-0.2305,-0.2314,-0.2317,-0.2323,-0.2312,-0.2296,-0.2293,-0.231,-0.2303,-0.2285,-0.2321,-0.2298,-0.2301,-0.232,-0.2328,-0.2334,-0.2323,-0.2248,0,0,0,0,0,-0.217,-0.2191,-0.2236,-0.2258,-0.2275,-0.2296,-0.231,-0.2315,-0.2328,-0.2327,-0.2322,-0.2321,-0.2331,-0.233,-0.2338,-0.2361,-0.2347,-0.2371,-0.2377,-0.2382,-0.2377,-0.2379,-0.2384,-0.2333,-0.2333,-0.2333,0,0,-0.2163,-0.2191,-0.2202,-0.2253,-0.2272,-0.2306,-0.2298,-0.2326,-0.2346,-0.2325,-0.2341,-0.2343,-0.2344,-0.2366,-0.2373,-0.2357,-0.2392,-0.2386,-0.239,-0.2382,-0.2383,-0.2388,-0.2392,-0.2335,-0.2335,-0.2334,0,0,-0.2166,-0.2192,-0.2213,-0.2246,-0.2288,-0.231,-0.2319,-0.2355,-0.236,-0.239,-0.2378,-0.239,-0.2405,-0.2408,-0.2412,-0.246,-0.2427,-0.2462,-0.2477,-0.2481,-0.2484,-0.2487,-0.248,-0.2481,-0.246,-0.2461,-0.2461,0,-0.2155,-0.2193,-0.2224,-0.226,-0.2283,-0.2312,-0.2342,-0.2367,-0.2399,-0.2407,-0.2396,-0.2426,-0.2426,-0.2451,-0.2464,-0.2471,-0.246,-0.2447,-0.2486,-0.2489,-0.2491,-0.2482,-0.2484,-0.2463,-0.2462,-0.2462,-0.2462,0,-0.2179,-0.2212,-0.2228,-0.2281,-0.2313,-0.2344,-0.2389,-0.2414,-0.2423,-0.2441,-0.2468,-0.2477,-0.2487,-0.2498,-0.2493,-0.2517,-0.25,-0.2495,-0.2462,-0.2498,-0.2487,-0.2488,-0.2466,-0.2465,-0.2464,-0.2464,0,0,-0.2141,-0.2227,-0.2231,-0.2256,-0.2325,-0.2352,-0.2397,-0.2442,-0.246,-0.249,-0.2507,-0.2536,-0.2532,-0.2536,-0.2537,-0.2542,-0.2555,-0.2523,-0.2522,-0.2503,-0.255,-0.2478,-0.2472,-0.255,-0.2551,-0.2551,-0.2536,0,-0.2143,-0.2205,-0.225,-0.2299,-0.2331,-0.238,-0.2416,-0.246,-0.249,-0.2518,-0.2535,-0.2553,-0.255,-0.2551,-0.256,-0.2559,-0.2559,-0.2559,-0.2527,-0.2526,-0.2448,-0.2471,-0.2354,-0.2325,-0.2537,-0.2537,-0.2537,0,-0.2145,-0.2187,-0.2236,-0.2305,-0.2322,-0.2353,-0.2408,-0.245,-0.2505,-0.2525,-0.2551,-0.2564,-0.2587,-0.2574,-0.2582,-0.2579,-0.2564,-0.256,-0.2559,-0.2476,-0.2456,-0.2324,-0.2318,-0.2299,-0.2538,-0.2538,-0.2538,0,-0.2089,-0.2171,-0.2204,-0.2231,-0.2317,-0.2336,-0.2376,-0.2438,-0.2469,-0.2525,-0.2543,-0.2575,-0.2582,-0.2583,-0.2577,-0.2577,-0.2574,-0.2574,-0.2496,-0.249,-0.2375,-0.2358,-0.2333,-0.257,-0.257,-0.257,-0.257,0,-0.207,-0.2093,-0.2178,-0.2195,-0.2222,-0.2297,-0.2326,-0.2376,-0.2441,-0.2469,-0.253,-0.2548,-0.2582,-0.2587,-0.258,-0.2534,-0.2574,-0.2494,-0.2481,-0.2385,-0.237,-0.2335,-0.2354,-0.2569,-0.2569,-0.257,-0.257,0,-0.1998,-0.2061,-0.2096,-0.2177,-0.2196,-0.2211,-0.2287,-0.2311,-0.2386,-0.2425,-0.2441,-0.2522,-0.2534,-0.2556,-0.2558,-0.2522,-0.2448,-0.247,-0.235,-0.2322,-0.2218,-0.2244,-0.2196,-0.2134,-0.238,-0.2378,-0.2376,0,-0.1964,-0.1978,-0.2055,-0.2065,-0.2095,-0.2134,-0.2158,-0.2258,-0.2292,-0.2398,-0.2406,-0.2455,-0.2464,-0.2452,-0.2416,-0.2382,-0.2378,-0.2238,-0.2218,-0.219,-0.2211,-0.2229,-0.2181,-0.2087,-0.2083,-0.208,-0.2077,0,-0.1884,-0.1912,-0.194,-0.1968,-0.1992,-0.2024,-0.2072,-0.2096,-0.221,-0.2249,-0.2301,-0.2324,-0.2343,-0.227,-0.2234,-0.2194,-0.2168,-0.2171,-0.2173,-0.2,-0.1986,-0.1926,-0.2126,-0.2049,-0.2052,-0.2054,-0.2055,-0.2057,-0.1803,-0.18,-0.1837,-0.1849,-0.1875,-0.1887,-0.1874,-0.1945,-0.1978,-0.2024,-0.2131,-0.2139,-0.2126,-0.2069,-0.203,-0.1914,-0.1984,-0.1844,-0.1885,-0.1913,-0.1825,-0.1957,-0.1847,-0.1849,-0.185,-0.1851,-0.1852,0,-0.1698,-0.1707,-0.1714,-0.1726,-0.1702,-0.176,-0.179,-0.1763,-0.1755,-0.1845,-0.1872,-0.1901,-0.1817,-0.1824,-0.174,-0.1654,-0.1614,-0.1612,-0.1616,-0.1585,-0.1715,-0.1673,-0.148,-0.148,-0.148,-0.148,-0.148,-0.148,-0.1643,-0.1612,-0.1618,-0.1543,-0.1543,-0.1476,-0.1464,-0.145,-0.1484,-0.1502,-0.1566,-0.1664,-0.1701,-0.1761,-0.1633,-0.1538,-0.1506,-0.1443,-0.1491,-0.1597,-0.1622,-0.1647,-0.1611,-0.1408,-0.1408,-0.128,-0.128,-0.1279]},{"header":{"parameterUnit":"m.s-1","parameterCategory":2,"la1":30.2991,"la2":30.254,"lo1":-89.0895,"lo2":-89.0444,"dy":0.0017,"dx":0.0017,"nx":28,"ny":28,"refTime":"2024-12-02T03:00:00:Z","depth":"0","parameterNumber":3,"parameterNumberName":"V-component_of_CURRENTS"},"data":[0,0,0,0,0,0,0,0,0,0,0,0,0,0,0,0,0,0,0,0,0,0,0,0,0,0,0,0,0,0,0,0,0,0,0,0,0,0,0,0,0,0,0,0,0,0,0,0,0,0,0,0,0,0,0,0,0,0,-0.0299,-0.0299,0,-0.0219,-0.0218,-0.0217,-0.0158,-0.0158,-0.0158,-0.0157,-0.005,-0.0048,-0.0045,0,0,0,0,0,0,0,0,0,0,0,0,0,-0.0362,-0.0361,-0.03,-0.0299,-0.0298,-0.0219,-0.0218,-0.0216,-0.0158,-0.0158,-0.0158,-0.0157,-0.0051,-0.0048,-0.0045,0,0,0,0,0,0,0,0,0,0,0,0,0,-0.0312,-0.0361,-0.03,-0.0261,-0.0256,-0.0219,-0.0218,-0.0216,-0.0159,-0.0158,-0.0158,-0.0157,-0.0052,-0.0048,-0.0044,-0.0031,0,0,-0.0033,-0.0031,0,0,0,0,0,0,0,0,-0.0315,-0.031,-0.0267,-0.0263,-0.0258,-0.0199,-0.02,-0.0153,-0.0159,-0.0194,-0.0157,-0.0157,-0.0099,-0.0091,-0.0075,-0.0026,-0.0022,-0.0032,-0.003,-0.0029,-0.0027,0,0,0,0,0,0,0,-0.0318,-0.0312,-0.0266,-0.0266,-0.0261,-0.0233,-0.0225,-0.0191,-0.0149,-0.0191,-0.0187,-0.0181,-0.0096,-0.0079,-0.0072,-0.002,-0.0033,-0.0029,-0.0027,-0.0025,0.0059,0.0059,0,0,0,0,0,0,-0.0334,-0.0316,-0.0269,-0.0264,-0.0288,-0.0232,-0.0224,-0.0218,-0.0149,-0.0139,-0.0181,-0.0178,-0.0086,-0.0077,-0.0068,-0.005,-0.0029,-0.0025,-0.0023,0.0059,0.0059,0.0059,0,0,0,0,0,0,-0.0336,-0.0331,-0.0272,-0.0289,-0.028,-0.0232,-0.0225,-0.0216,-0.0199,-0.0143,-0.0131,-0.0173,-0.0085,-0.0074,-0.0038,-0.0046,-0.0023,-0.002,0.0059,0.0059,0.0059,-0.0013,0,0,0,0,0,0,-0.0338,-0.0332,-0.0335,-0.029,-0.028,-0.0258,-0.0226,-0.0215,-0.0197,-0.0192,-0.0132,-0.0122,-0.0084,-0.0044,-0.0034,-0.004,-0.0017,0.0059,0.0059,0.0059,-0.0011,-0.0015,-0.002,0,0,0,0,0,-0.0341,-0.035,-0.0336,-0.033,-0.0285,-0.0259,-0.0251,-0.0214,-0.0197,-0.0195,-0.0151,-0.0124,-0.0037,-0.0041,-0.0029,-0.0034,0.0059,0.0059,0.0059,-0.0008,-0.0015,-0.002,0,0,0,0,0,0,-0.038,-0.0344,-0.0327,-0.0326,-0.0298,-0.025,-0.0246,-0.022,-0.0183,-0.0178,-0.0123,-0.0109,-0.0081,-0.0047,-0.0052,-0.0009,0.0015,0.0017,-0.004,-0.0045,-0.005,-0.0064,-0.0014,0,0,0,0,0,-0.0392,-0.0389,-0.0348,-0.0348,-0.0337,-0.0292,-0.0278,-0.0253,-0.0214,-0.0197,-0.0155,-0.011,-0.0072,-0.0051,-0.0013,0.0009,0.0045,0.0014,0.0009,0.0005,0.0002,0.0046,0.0045,0.0058,0.0058,0.0058,0,0,-0.0407,-0.0388,-0.0386,-0.0356,-0.0331,-0.0323,-0.0282,-0.0266,-0.0256,-0.0192,-0.0168,-0.0125,-0.007,-0.0043,-0.0028,-0.0016,0.002,0.0005,0.0001,0.0001,0.0046,0.0044,0.0043,0.0058,0.0058,0.0058,0,0,-0.0441,-0.042,-0.0429,-0.0411,-0.0381,-0.0351,-0.035,-0.0305,-0.0282,-0.0254,-0.0206,-0.0167,-0.0112,-0.0072,-0.0046,-0.0052,-0.0006,-0.0042,-0.0075,-0.0033,-0.0034,-0.0035,0.0006,0.001,-0.0044,-0.0044,-0.0044,0,-0.0462,-0.0466,-0.0428,-0.0433,-0.0425,-0.0369,-0.0377,-0.0346,-0.0294,-0.0278,-0.0257,-0.017,-0.0125,-0.0087,-0.0088,-0.0063,-0.0032,-0.0062,-0.0041,-0.004,-0.0039,0.0003,0.0008,-0.0047,-0.0047,-0.0047,-0.0046,0,-0.05,-0.0504,-0.0509,-0.0495,-0.048,-0.0478,-0.0433,-0.0413,-0.0377,-0.0341,-0.0297,-0.023,-0.0178,-0.0159,-0.0124,-0.0097,-0.0075,-0.0054,-0.0032,-0.0045,0.0,0.0007,-0.0052,-0.0051,-0.005,-0.0049,0,0,-0.0541,-0.0538,-0.0538,-0.0547,-0.0513,-0.0507,-0.0491,-0.0459,-0.0448,-0.0391,-0.0371,-0.03,-0.0258,-0.0225,-0.0173,-0.0135,-0.0101,-0.0098,-0.0095,-0.0067,-0.0009,0.0033,0.0045,-0.0079,-0.0078,-0.0078,0.0019,0,-0.0581,-0.0615,-0.0593,-0.0617,-0.0629,-0.058,-0.0571,-0.0534,-0.0488,-0.0454,-0.0377,-0.0337,-0.0284,-0.0259,-0.0213,-0.0125,-0.0087,-0.0129,0.0008,0.0012,0.0045,0.0053,0.008,0.0171,0.0026,0.0027,0.0028,0,-0.0622,-0.064,-0.0678,-0.0684,-0.0683,-0.0683,-0.0657,-0.064,-0.0574,-0.054,-0.048,-0.0414,-0.0339,-0.0298,-0.016,-0.019,-0.011,-0.0043,-0.0037,0.0032,0.0067,0.0164,0.0189,0.034,0.0039,0.0038,0.0037,0,-0.0675,-0.0695,-0.0731,-0.0733,-0.0728,-0.0731,-0.0718,-0.0668,-0.0656,-0.0589,-0.0569,-0.0468,-0.0413,-0.0302,-0.0154,-0.0158,-0.0003,0.0012,0.0126,0.013,0.0196,0.0204,0.0377,0.01,0.01,0.0099,0.0099,0,-0.0727,-0.0752,-0.076,-0.0781,-0.0816,-0.0787,-0.0802,-0.0771,-0.0729,-0.0718,-0.0617,-0.0578,-0.0413,-0.0298,-0.0171,0.0005,-0.001,0.0125,0.016,0.0172,0.0177,0.0346,0.0402,0.0103,0.0102,0.0101,0.0101,0,-0.0779,-0.0784,-0.0827,-0.084,-0.0844,-0.0867,-0.0865,-0.087,-0.0821,-0.0801,-0.0782,-0.0654,-0.0495,-0.0322,-0.0129,-0.0013,0.0241,0.0207,0.0211,0.0245,0.0487,0.0535,0.0734,0.0812,0.0348,0.035,0.0351,0,-0.0809,-0.0839,-0.0877,-0.0906,-0.0914,-0.094,-0.0955,-0.0921,-0.0921,-0.0843,-0.0836,-0.0683,-0.0563,-0.0256,-0.0022,0.0218,0.0324,0.0371,0.0372,0.0513,0.0594,0.0628,0.068,0.0433,0.0435,0.0436,0.0438,0,-0.0865,-0.0877,-0.0911,-0.0975,-0.1005,-0.1039,-0.1055,-0.1071,-0.1023,-0.0985,-0.0902,-0.0797,-0.0489,-0.0198,0.0118,0.0264,0.0485,0.0411,0.0564,0.0682,0.0725,0.0811,0.0353,0.0452,0.0451,0.0449,0.0449,0.0448,-0.0896,-0.0937,-0.0982,-0.1037,-0.1079,-0.1123,-0.1146,-0.1147,-0.1135,-0.1064,-0.096,-0.0777,-0.0354,0.0107,0.0283,0.0663,0.0627,0.0771,0.0821,0.0843,0.0919,0.049,0.0622,0.0621,0.0621,0.0621,0.062,0,-0.0934,-0.0978,-0.104,-0.1103,-0.1155,-0.116,-0.1196,-0.1196,-0.1177,-0.1083,-0.0972,-0.0533,-0.0096,0.0307,0.0839,0.1053,0.1098,0.1159,0.122,0.1256,0.0892,0.0896,0.1087,0.1086,0.1086,0.1086,0.1086,0.1086,-0.0955,-0.1021,-0.1054,-0.1145,-0.1188,-0.1231,-0.1247,-0.1229,-0.1165,-0.0976,-0.075,-0.058,0.0017,0.0881,0.1388,0.1441,0.1611,0.1604,0.1692,0.1449,0.1416,0.1385,0.1405,0.17,0.17,0.2041,0.2044,0.2047]}],[{"header":{"parameterUnit":"m.s-1","parameterCategory":2,"la1":30.2991,"la2":30.254,"lo1":-89.0895,"lo2":-89.0444,"dy":0.0017,"dx":0.0017,"nx":28,"ny":28,"refTime":"2024-12-02T03:00:00:Z","depth":"2","parameterNumber":2,"parameterNumberName":"U-component_of_CURRENTS"},"data":[0,0,0,0,0,0,0,0,0,0,0,0,0,0,0,0,0,0,0,0,0,0,0,0,0,0,0,0,0,0,0,0,0,0,0,0,0,0,0,0,0,0,0,0,0,0,0,0,0,0,0,0,0,0,0,0,0,0,-0.2048,-0.2048,0,-0.2087,-0.2088,-0.2088,-0.2062,-0.2061,-0.206,-0.2059,-0.2042,-0.2042,-0.2043,0,0,0,0,0,0,0,0,0,0,0,0,0,-0.1956,-0.1958,-0.2048,-0.2048,-0.2049,-0.2087,-0.2088,-0.2088,-0.2062,-0.2061,-0.206,-0.2058,-0.2041,-0.2042,-0.2043,0,0,0,0,0,0,0,0,0,0,0,0,0,-0.1994,-0.1958,-0.2048,-0.2042,-0.2042,-0.2087,-0.2088,-0.2088,-0.2062,-0.2061,-0.2059,-0.2058,-0.2041,-0.2042,-0.2043,-0.2078,0,0,-0.2045,-0.2045,0,0,0,0,0,0,0,0,-0.1992,-0.1997,-0.2042,-0.2043,-0.2043,-0.207,-0.2049,-0.2082,-0.2063,-0.2053,-0.2059,-0.2057,-0.2048,-0.2048,-0.2057,-0.2077,-0.2076,-0.2045,-0.2045,-0.2046,-0.2046,0,0,0,0,0,0,0,-0.1989,-0.1995,-0.2061,-0.2043,-0.2044,-0.204,-0.2044,-0.2055,-0.2056,-0.2053,-0.2052,-0.206,-0.2047,-0.2056,-0.2056,-0.2076,-0.2045,-0.2046,-0.2046,-0.2046,-0.212,-0.2121,0,0,0,0,0,0,-0.199,-0.1993,-0.206,-0.2063,-0.2015,-0.2043,-0.2047,-0.2061,-0.2057,-0.2056,-0.2061,-0.2059,-0.2056,-0.2056,-0.2056,-0.2087,-0.2046,-0.2046,-0.2047,-0.2118,-0.212,-0.2122,0,0,0,0,0,0,-0.1988,-0.1996,-0.2059,-0.203,-0.2038,-0.2047,-0.2063,-0.2063,-0.2068,-0.2064,-0.2061,-0.2066,-0.2055,-0.2055,-0.2071,-0.2086,-0.2047,-0.2047,-0.2116,-0.2119,-0.2121,-0.2156,0,0,0,0,0,0,-0.1986,-0.1995,-0.2004,-0.203,-0.2039,-0.2087,-0.2064,-0.2065,-0.2076,-0.2073,-0.2067,-0.2064,-0.2054,-0.207,-0.2072,-0.2086,-0.2048,-0.2114,-0.2117,-0.212,-0.2153,-0.2159,-0.2164,0,0,0,0,0,-0.1982,-0.2,-0.2004,-0.2012,-0.2052,-0.2088,-0.2092,-0.2091,-0.2078,-0.2088,-0.2086,-0.2064,-0.2089,-0.2072,-0.2074,-0.2089,-0.2113,-0.2116,-0.212,-0.215,-0.2158,-0.2164,0,0,0,0,0,0,-0.1964,-0.2,-0.2005,-0.2033,-0.206,-0.2084,-0.2093,-0.2097,-0.2106,-0.2098,-0.2086,-0.2084,-0.2105,-0.21,-0.2081,-0.2121,-0.2097,-0.2101,-0.212,-0.2127,-0.2133,-0.2124,-0.2049,0,0,0,0,0,-0.1967,-0.1985,-0.2023,-0.2043,-0.2058,-0.2077,-0.209,-0.2097,-0.211,-0.2112,-0.211,-0.2112,-0.2124,-0.2125,-0.2135,-0.2159,-0.2146,-0.2171,-0.2176,-0.2181,-0.2177,-0.2181,-0.2186,-0.2133,-0.2133,-0.2133,0,0,-0.1963,-0.1986,-0.1995,-0.204,-0.2057,-0.2088,-0.208,-0.2107,-0.2127,-0.211,-0.213,-0.2135,-0.2137,-0.2161,-0.217,-0.2154,-0.2192,-0.2185,-0.2189,-0.2182,-0.2185,-0.2189,-0.2194,-0.2135,-0.2135,-0.2134,0,0,-0.1967,-0.1989,-0.2007,-0.2036,-0.2074,-0.2093,-0.2103,-0.2136,-0.2143,-0.2175,-0.2166,-0.2181,-0.2199,-0.2204,-0.2208,-0.2256,-0.2225,-0.2259,-0.2276,-0.228,-0.2283,-0.2287,-0.2279,-0.2281,-0.2258,-0.2258,-0.2258,0,-0.1959,-0.1991,-0.2017,-0.2048,-0.207,-0.2097,-0.2124,-0.2149,-0.2181,-0.2191,-0.2183,-0.2217,-0.2219,-0.2246,-0.226,-0.2267,-0.2257,-0.2245,-0.2285,-0.2288,-0.229,-0.2282,-0.2284,-0.226,-0.226,-0.226,-0.2259,0,-0.1979,-0.2008,-0.2023,-0.2069,-0.2099,-0.2128,-0.217,-0.2196,-0.2208,-0.2227,-0.2257,-0.2269,-0.2281,-0.2293,-0.2289,-0.2315,-0.2299,-0.2293,-0.2261,-0.2297,-0.2287,-0.2288,-0.2263,-0.2262,-0.2262,-0.2261,0,0,-0.1947,-0.2022,-0.2026,-0.2049,-0.2111,-0.2136,-0.2181,-0.2224,-0.2245,-0.2276,-0.2297,-0.2328,-0.2327,-0.2332,-0.2334,-0.234,-0.2355,-0.2323,-0.2322,-0.2305,-0.2353,-0.2283,-0.2277,-0.2352,-0.2352,-0.2352,-0.2339,0,-0.195,-0.2003,-0.2043,-0.2089,-0.2118,-0.2164,-0.2201,-0.2244,-0.2275,-0.2306,-0.2325,-0.2347,-0.2344,-0.2349,-0.2358,-0.2359,-0.236,-0.2359,-0.233,-0.2329,-0.2253,-0.2277,-0.2097,-0.2064,-0.234,-0.234,-0.234,0,-0.195,-0.1987,-0.2032,-0.2096,-0.2113,-0.2144,-0.2199,-0.2241,-0.2297,-0.2318,-0.2346,-0.2362,-0.2386,-0.2374,-0.2384,-0.2381,-0.2367,-0.2364,-0.2363,-0.2282,-0.2261,-0.2073,-0.2055,-0.2342,-0.2341,-0.2341,-0.2341,0,-0.19,-0.1975,-0.2005,-0.203,-0.2111,-0.2131,-0.2171,-0.2233,-0.2265,-0.2322,-0.2342,-0.2376,-0.2386,-0.2387,-0.2383,-0.2383,-0.2382,-0.2381,-0.2304,-0.2299,-0.213,-0.2109,-0.2377,-0.2377,-0.2378,-0.2378,-0.2378,0,-0.1882,-0.1904,-0.1982,-0.1999,-0.2029,-0.2098,-0.2132,-0.2181,-0.2246,-0.2274,-0.2335,-0.2353,-0.2388,-0.2395,-0.2387,-0.2344,-0.2383,-0.2303,-0.229,-0.2139,-0.212,-0.2349,-0.2346,-0.2377,-0.2377,-0.2377,-0.2377,0,-0.1817,-0.1874,-0.1908,-0.1985,-0.2005,-0.2023,-0.2099,-0.2125,-0.22,-0.2239,-0.2255,-0.2332,-0.2344,-0.2367,-0.2369,-0.2335,-0.2313,-0.2284,-0.21,-0.2065,-0.2226,-0.2225,-0.2199,-0.2197,-0.2195,-0.2193,-0.2191,0,-0.1786,-0.1798,-0.1872,-0.1884,-0.1914,-0.1956,-0.1982,-0.2077,-0.211,-0.2213,-0.222,-0.2269,-0.2271,-0.2261,-0.2221,-0.2186,-0.2254,-0.199,-0.196,-0.2218,-0.2208,-0.2211,-0.2213,-0.1754,-0.1749,-0.1744,-0.1741,0,-0.1713,-0.174,-0.1767,-0.1796,-0.1822,-0.1855,-0.1903,-0.1924,-0.2032,-0.2069,-0.2112,-0.2129,-0.2141,-0.203,-0.1996,-0.195,-0.1985,-0.1905,-0.2214,-0.1831,-0.1797,-0.1788,-0.1805,-0.1705,-0.1708,-0.1711,-0.1713,-0.1714,-0.164,-0.1638,-0.1673,-0.1688,-0.1716,-0.1727,-0.1715,-0.1778,-0.1805,-0.1838,-0.1937,-0.191,-0.1911,-0.1779,-0.1697,-0.1637,-0.1779,-0.1686,-0.1698,-0.1715,-0.1671,-0.1635,-0.1503,-0.1505,-0.1507,-0.1509,-0.1511,0,-0.1544,-0.1553,-0.1561,-0.1575,-0.1556,-0.1613,-0.1637,-0.1606,-0.1587,-0.1647,-0.1663,-0.1519,-0.1449,-0.1468,-0.1325,-0.1294,-0.1278,-0.1229,-0.1206,-0.1243,-0.1275,-0.1209,-0.0918,-0.0917,-0.0915,-0.0914,0,0,-0.1492,-0.1465,-0.147,-0.1404,-0.1409,-0.1348,-0.1333,-0.1307,-0.1316,-0.1271,-0.1265,-0.1382,-0.1425,-0.1178,-0.1112,-0.0996,-0.1107,-0.0939,-0.1413,-0.1422,-0.1452,-0.1533,-0.1471,0,0,0,0,0]},{"header":{"parameterUnit":"m.s-1","parameterCategory":2,"la1":30.2991,"la2":30.254,"lo1":-89.0895,"lo2":-89.0444,"dy":0.0017,"dx":0.0017,"nx":28,"ny":28,"refTime":"2024-12-02T03:00:00:Z","depth":"2","parameterNumber":3,"parameterNumberName":"V-component_of_CURRENTS"},"data":[0,0,0,0,0,0,0,0,0,0,0,0,0,0,0,0,0,0,0,0,0,0,0,0,0,0,0,0,0,0,0,0,0,0,0,0,0,0,0,0,0,0,0,0,0,0,0,0,0,0,0,0,0,0,0,0,0,0,-0.0155,-0.0155,0,-0.0081,-0.008,-0.0079,-0.0025,-0.0025,-0.0025,-0.0025,0.0076,0.0078,0.008,0,0,0,0,0,0,0,0,0,0,0,0,0,-0.0213,-0.0213,-0.0156,-0.0155,-0.0154,-0.0081,-0.008,-0.0079,-0.0025,-0.0025,-0.0025,-0.0024,0.0075,0.0078,0.008,0,0,0,0,0,0,0,0,0,0,0,0,0,-0.0167,-0.0212,-0.0156,-0.012,-0.0116,-0.0082,-0.008,-0.0079,-0.0026,-0.0025,-0.0025,-0.0024,0.0074,0.0077,0.0081,0.0094,0,0,0.0092,0.0093,0,0,0,0,0,0,0,0,-0.017,-0.0165,-0.0126,-0.0122,-0.0118,-0.0063,-0.0064,-0.002,-0.0026,-0.0058,-0.0025,-0.0024,0.003,0.0037,0.0052,0.0098,0.0103,0.0092,0.0094,0.0096,0.0097,0,0,0,0,0,0,0,-0.0173,-0.0168,-0.0124,-0.0125,-0.012,-0.0094,-0.0087,-0.0055,-0.0016,-0.0055,-0.0052,-0.0046,0.0033,0.0048,0.0055,0.0104,0.0092,0.0095,0.0097,0.0099,0.0176,0.0176,0,0,0,0,0,0,-0.0188,-0.0171,-0.0127,-0.0122,-0.0145,-0.0094,-0.0086,-0.008,-0.0017,-0.0007,-0.0046,-0.0044,0.0042,0.0051,0.0059,0.0076,0.0096,0.0099,0.0101,0.0176,0.0176,0.0176,0,0,0,0,0,0,-0.019,-0.0185,-0.013,-0.0146,-0.0138,-0.0094,-0.0087,-0.0079,-0.0064,-0.001,-0.0,-0.0041,0.0043,0.0054,0.0086,0.008,0.0101,0.0104,0.0176,0.0176,0.0176,0.0112,0,0,0,0,0,0,-0.0191,-0.0186,-0.019,-0.0147,-0.0137,-0.0118,-0.0088,-0.0078,-0.0062,-0.0058,-0.0002,0.0008,0.0044,0.0081,0.009,0.0086,0.0107,0.0176,0.0176,0.0176,0.0114,0.0109,0.0105,0,0,0,0,0,-0.0194,-0.0203,-0.019,-0.0185,-0.0143,-0.0119,-0.0111,-0.0077,-0.0062,-0.0061,-0.002,0.0006,0.0086,0.0084,0.0094,0.0091,0.0177,0.0176,0.0176,0.0116,0.011,0.0105,0,0,0,0,0,0,-0.0232,-0.0198,-0.0182,-0.0181,-0.0156,-0.011,-0.0108,-0.0084,-0.005,-0.0046,0.0007,0.0019,0.0045,0.0077,0.0073,0.0113,0.0135,0.0137,0.0086,0.0081,0.0077,0.0064,0.011,0,0,0,0,0,-0.0243,-0.024,-0.0202,-0.0203,-0.0193,-0.0151,-0.0138,-0.0115,-0.008,-0.0064,-0.0025,0.0017,0.0053,0.0073,0.0108,0.013,0.0164,0.0135,0.0131,0.0127,0.0125,0.017,0.0169,0.0175,0.0175,0.0175,0,0,-0.0258,-0.024,-0.0238,-0.0211,-0.0188,-0.018,-0.0142,-0.0128,-0.0119,-0.0059,-0.0037,0.0003,0.0055,0.008,0.0095,0.0107,0.0142,0.0127,0.0123,0.0123,0.017,0.0169,0.0169,0.0175,0.0175,0.0175,0,0,-0.029,-0.0271,-0.028,-0.0263,-0.0236,-0.0208,-0.0207,-0.0166,-0.0144,-0.0118,-0.0073,-0.0037,0.0015,0.0054,0.008,0.0074,0.0117,0.0082,0.0053,0.0097,0.0096,0.0097,0.0132,0.0136,0.0082,0.0082,0.0081,0,-0.0311,-0.0314,-0.028,-0.0284,-0.0276,-0.0225,-0.0232,-0.0203,-0.0156,-0.0139,-0.0122,-0.0039,0.0003,0.0043,0.0042,0.0064,0.0093,0.0066,0.009,0.0091,0.0093,0.0129,0.0135,0.0078,0.0079,0.0079,0.0079,0,-0.0347,-0.035,-0.0355,-0.0342,-0.0328,-0.0327,-0.0284,-0.0265,-0.0233,-0.0198,-0.0155,-0.0093,-0.0043,-0.0025,0.0008,0.0038,0.0056,0.0077,0.0099,0.0088,0.0128,0.0134,0.0074,0.0075,0.0076,0.0077,0,0,-0.0387,-0.0383,-0.0383,-0.0391,-0.036,-0.0353,-0.0337,-0.0305,-0.0294,-0.0241,-0.022,-0.0152,-0.0113,-0.0081,-0.0032,0.0007,0.004,0.0039,0.0043,0.0068,0.013,0.0159,0.0169,0.0064,0.0065,0.0066,0.0152,0,-0.0424,-0.0456,-0.0435,-0.0456,-0.0467,-0.042,-0.0411,-0.0375,-0.0331,-0.0297,-0.0223,-0.0185,-0.0135,-0.0113,-0.0065,0.0017,0.0056,0.0015,0.0144,0.0148,0.0169,0.0177,0.0155,0.0231,0.0158,0.0159,0.016,0,-0.0463,-0.048,-0.0515,-0.0517,-0.0516,-0.0517,-0.049,-0.0473,-0.0408,-0.0376,-0.0316,-0.0254,-0.0181,-0.0144,-0.001,-0.0039,0.0036,0.0099,0.0104,0.0159,0.0189,0.0234,0.0247,0.0172,0.0171,0.017,0.0169,0,-0.0514,-0.0532,-0.0564,-0.0566,-0.0559,-0.0561,-0.0549,-0.05,-0.0487,-0.0421,-0.0403,-0.0303,-0.0251,-0.0144,-0.0007,-0.0009,0.0137,0.0155,0.0251,0.0253,0.0276,0.0279,0.0241,0.0241,0.0241,0.024,0.024,0,-0.0563,-0.0586,-0.0593,-0.0612,-0.0644,-0.0617,-0.063,-0.0599,-0.0557,-0.0544,-0.0448,-0.0412,-0.025,-0.0142,-0.0023,0.0138,0.013,0.0249,0.0281,0.0252,0.0252,0.0234,0.0232,0.0244,0.0243,0.0242,0.0242,0,-0.0613,-0.0617,-0.0657,-0.0668,-0.0672,-0.0695,-0.0692,-0.0695,-0.0648,-0.0626,-0.0609,-0.0487,-0.034,-0.0174,0.0011,0.0118,0.0265,0.032,0.0273,0.0298,0.0355,0.0348,0.0438,0.044,0.0442,0.0443,0.0444,0,-0.0642,-0.067,-0.0706,-0.0734,-0.0742,-0.0766,-0.0781,-0.0746,-0.0744,-0.067,-0.0664,-0.0521,-0.041,-0.0127,0.0087,0.0307,0.0305,0.0406,0.0406,0.0355,0.0377,0.0368,0.036,0.0408,0.0408,0.0409,0.0409,0,-0.0696,-0.0708,-0.074,-0.0802,-0.0831,-0.0861,-0.0876,-0.0889,-0.0839,-0.0805,-0.0731,-0.0634,-0.0356,-0.0109,0.0178,0.0304,0.0372,0.0426,0.0396,0.0358,0.0333,0.0352,0.0344,0.0414,0.0414,0.0413,0.0413,0.0413,-0.0728,-0.0767,-0.081,-0.0863,-0.0902,-0.0941,-0.0961,-0.0959,-0.0947,-0.0877,-0.0787,-0.062,-0.0375,0.0038,0.0246,0.0445,0.0441,0.0494,0.0489,0.0485,0.0463,0.0442,0.0539,0.054,0.054,0.054,0.054,0,-0.0766,-0.0808,-0.0867,-0.0926,-0.0975,-0.098,-0.1009,-0.1005,-0.0986,-0.0898,-0.0798,-0.0524,-0.0238,0.002,0.0341,0.0528,0.0514,0.0556,0.05,0.0494,0.0489,0.0465,0.0543,0.0544,0.0544,0.0545,0,0,-0.0787,-0.085,-0.088,-0.0966,-0.1008,-0.1049,-0.1061,-0.1037,-0.0976,-0.088,-0.0752,-0.0569,-0.0245,-0.002,0.0221,0.039,0.039,0.0407,0.0385,0.0285,0.0278,0.0438,0.0393,0,0,0,0,0]}],[{"header":{"parameterUnit":"m.s-1","parameterCategory":2,"la1":30.2991,"la2":30.254,"lo1":-89.0895,"lo2":-89.0444,"dy":0.0017,"dx":0.0017,"nx":28,"ny":28,"refTime":"2024-12-02T03:00:00:Z","depth":"4","parameterNumber":2,"parameterNumberName":"U-component_of_CURRENTS"},"data":[0,0,0,0,0,0,0,0,0,0,0,0,0,0,0,0,0,0,0,0,0,0,0,0,0,0,0,0,0,0,0,0,0,0,0,0,0,0,0,0,0,0,0,0,0,0,0,0,0,0,0,0,0,0,0,0,0,0,-0.147,-0.1471,0,-0.153,-0.1531,-0.1531,-0.1559,-0.1559,-0.1559,-0.1559,-0.161,-0.1611,-0.1612,0,0,0,0,0,0,0,0,0,0,0,0,0,-0.1384,-0.1385,-0.147,-0.1471,-0.1471,-0.153,-0.1531,-0.1532,-0.1559,-0.1559,-0.1559,-0.1559,-0.1609,-0.1611,-0.1612,0,0,0,0,0,0,0,0,0,0,0,0,0,-0.1429,-0.1385,-0.147,-0.1493,-0.1496,-0.153,-0.1531,-0.1532,-0.1559,-0.1559,-0.1559,-0.1559,-0.1609,-0.1611,-0.1613,-0.1623,0,0,-0.1619,-0.1619,0,0,0,0,0,0,0,0,-0.1427,-0.1432,-0.1489,-0.1492,-0.1495,-0.1538,-0.1519,-0.1562,-0.1559,-0.1534,-0.1559,-0.1559,-0.1586,-0.159,-0.1599,-0.1625,-0.1627,-0.1619,-0.162,-0.1621,-0.1621,0,0,0,0,0,0,0,-0.1423,-0.143,-0.1492,-0.149,-0.1493,-0.1503,-0.1509,-0.1527,-0.1557,-0.1536,-0.1539,-0.1547,-0.1587,-0.1597,-0.1601,-0.1628,-0.1619,-0.162,-0.1622,-0.1622,-0.1731,-0.1733,0,0,0,0,0,0,-0.1418,-0.1427,-0.1491,-0.1494,-0.1462,-0.1504,-0.1511,-0.1523,-0.1558,-0.1563,-0.1547,-0.1548,-0.1594,-0.1598,-0.1602,-0.1672,-0.1621,-0.1623,-0.1624,-0.1729,-0.1731,-0.1733,0,0,0,0,0,0,-0.1416,-0.1423,-0.1488,-0.1463,-0.1472,-0.1506,-0.1519,-0.1524,-0.1557,-0.1566,-0.1572,-0.1577,-0.1594,-0.16,-0.1645,-0.1672,-0.1623,-0.1625,-0.1727,-0.173,-0.1732,-0.1777,0,0,0,0,0,0,-0.1413,-0.1422,-0.1442,-0.1462,-0.1473,-0.1524,-0.1519,-0.1526,-0.1562,-0.1564,-0.1593,-0.1597,-0.1595,-0.1642,-0.1647,-0.1674,-0.1627,-0.1725,-0.1729,-0.1732,-0.1773,-0.178,-0.1787,0,0,0,0,0,-0.141,-0.1431,-0.1442,-0.1451,-0.1494,-0.1525,-0.1532,-0.1555,-0.1563,-0.1584,-0.1608,-0.1597,-0.1666,-0.1645,-0.165,-0.1679,-0.1724,-0.1728,-0.1731,-0.177,-0.1779,-0.1787,0,0,0,0,0,0,-0.1406,-0.1436,-0.1449,-0.148,-0.1509,-0.1531,-0.1555,-0.157,-0.1606,-0.1615,-0.162,-0.1626,-0.1675,-0.1675,-0.1653,-0.1721,-0.1693,-0.1698,-0.172,-0.1729,-0.1736,-0.1725,-0.1628,0,0,0,0,0,-0.1414,-0.1437,-0.1467,-0.1494,-0.151,-0.1538,-0.1559,-0.1577,-0.1604,-0.1621,-0.1643,-0.1667,-0.1692,-0.1709,-0.173,-0.1769,-0.1755,-0.1792,-0.1799,-0.1804,-0.1801,-0.1809,-0.1816,-0.1746,-0.1746,-0.1746,0,0,-0.142,-0.144,-0.1455,-0.1495,-0.1519,-0.1549,-0.1551,-0.1591,-0.1622,-0.1621,-0.1677,-0.1695,-0.1709,-0.1752,-0.1774,-0.1758,-0.1819,-0.1809,-0.1814,-0.1807,-0.1814,-0.182,-0.1826,-0.1749,-0.1748,-0.1748,0,0,-0.1432,-0.1463,-0.1484,-0.1512,-0.1555,-0.1575,-0.1592,-0.1633,-0.1659,-0.1712,-0.1719,-0.1755,-0.1798,-0.1811,-0.1821,-0.188,-0.1856,-0.1893,-0.1918,-0.1927,-0.1932,-0.1936,-0.1928,-0.1932,-0.1895,-0.1895,-0.1895,0,-0.1441,-0.147,-0.1496,-0.1525,-0.1552,-0.1588,-0.1619,-0.1653,-0.1707,-0.173,-0.1738,-0.1807,-0.1822,-0.1862,-0.1885,-0.1895,-0.1889,-0.1883,-0.1933,-0.1937,-0.1941,-0.1932,-0.1935,-0.1897,-0.1897,-0.1897,-0.1897,0,-0.146,-0.1497,-0.1514,-0.1561,-0.1595,-0.163,-0.1675,-0.1719,-0.1757,-0.1784,-0.1845,-0.187,-0.1904,-0.1922,-0.1923,-0.1963,-0.1947,-0.194,-0.1906,-0.195,-0.1939,-0.1941,-0.1901,-0.19,-0.1899,-0.1899,0,0,-0.1439,-0.1513,-0.1521,-0.1551,-0.1618,-0.1644,-0.1705,-0.176,-0.1797,-0.1853,-0.1895,-0.1948,-0.196,-0.1972,-0.1983,-0.1995,-0.2022,-0.1983,-0.1982,-0.1964,-0.203,-0.1893,-0.1882,-0.2023,-0.2023,-0.2024,-0.2011,0,-0.1447,-0.1501,-0.154,-0.16,-0.163,-0.1687,-0.1737,-0.1794,-0.1843,-0.1896,-0.193,-0.1976,-0.1979,-0.2001,-0.2017,-0.2024,-0.203,-0.2025,-0.2,-0.1998,-0.1862,-0.1881,-0.2026,-0.2013,-0.2013,-0.2013,-0.2014,0,-0.1444,-0.1483,-0.154,-0.1617,-0.1637,-0.1683,-0.1762,-0.1814,-0.189,-0.1926,-0.1974,-0.2001,-0.2042,-0.2034,-0.2058,-0.2056,-0.2046,-0.2044,-0.2043,-0.1897,-0.1865,-0.1961,-0.2017,-0.2017,-0.2017,-0.2016,-0.2016,0,-0.1396,-0.148,-0.1526,-0.1554,-0.1648,-0.1688,-0.1742,-0.1823,-0.1865,-0.1945,-0.1976,-0.2028,-0.2054,-0.2062,-0.2063,-0.2066,-0.207,-0.207,-0.1935,-0.1925,-0.2033,-0.2028,-0.2074,-0.2074,-0.2074,-0.2074,-0.2074,0,-0.1371,-0.1411,-0.1513,-0.1536,-0.1594,-0.167,-0.1733,-0.1793,-0.1874,-0.1909,-0.1985,-0.2003,-0.2063,-0.2073,-0.2068,-0.1996,-0.2072,-0.193,-0.1909,-0.2053,-0.2051,-0.2034,-0.2029,-0.2073,-0.2073,-0.2073,-0.2073,0,-0.1303,-0.1374,-0.143,-0.1536,-0.1572,-0.1613,-0.1718,-0.1755,-0.1845,-0.1891,-0.1915,-0.1993,-0.1998,-0.2031,-0.204,-0.198,-0.1942,-0.1897,-0.2041,-0.203,-0.1793,-0.1791,-0.1742,-0.1737,-0.1733,-0.1729,-0.1726,0,-0.1269,-0.1293,-0.1411,-0.1443,-0.1494,-0.1569,-0.1613,-0.1723,-0.1754,-0.1858,-0.1859,-0.191,-0.1941,-0.1838,-0.1891,-0.1856,-0.1837,-0.1803,-0.1802,-0.1772,-0.1758,-0.1763,-0.1767,-0.1719,-0.1718,-0.1717,-0.1716,0,-0.1195,-0.1251,-0.1296,-0.1364,-0.1421,-0.1474,-0.1544,-0.1553,-0.1663,-0.1764,-0.1747,-0.1743,-0.1741,-0.1741,-0.172,-0.1701,-0.1819,-0.1758,-0.1767,-0.1767,-0.1745,-0.1736,-0.1745,-0.1701,-0.1703,-0.1705,-0.1706,0,-0.1138,-0.1151,-0.1218,-0.1263,-0.1329,-0.1346,-0.1404,-0.1433,-0.1478,-0.1596,-0.1582,-0.1639,-0.1716,-0.1658,-0.1642,-0.1607,-0.1588,-0.1536,-0.1556,-0.1573,-0.1523,-0.1471,-0.1315,0,0,0,0,0,-0.1071,-0.1073,-0.1109,-0.1154,-0.1213,-0.125,-0.1339,-0.1399,-0.1505,-0.1448,-0.1511,-0.1501,-0.1475,-0.151,-0.1437,-0.1569,-0.1597,-0.1478,-0.1549,-0.162,-0.1637,-0.1594,0,0,0,0,0,0,-0.1027,-0.1057,-0.1068,-0.1044,-0.1052,-0.1105,-0.1153,-0.1233,-0.1211,-0.1323,-0.1316,-0.1402,-0.1402,-0.149,-0.1404,-0.1413,-0.1424,-0.1524,-0.1519,-0.161,-0.1625,-0.1639,-0.1601,0,0,0,0,0]},{"header":{"parameterUnit":"m.s-1","parameterCategory":2,"la1":30.2991,"la2":30.254,"lo1":-89.0895,"lo2":-89.0444,"dy":0.0017,"dx":0.0017,"nx":28,"ny":28,"refTime":"2024-12-02T03:00:00:Z","depth":"4","parameterNumber":3,"parameterNumberName":"V-component_of_CURRENTS"},"data":[0,0,0,0,0,0,0,0,0,0,0,0,0,0,0,0,0,0,0,0,0,0,0,0,0,0,0,0,0,0,0,0,0,0,0,0,0,0,0,0,0,0,0,0,0,0,0,0,0,0,0,0,0,0,0,0,0,0,-0.0073,-0.0073,0,-0.0022,-0.0021,-0.002,0.0021,0.0021,0.0021,0.0022,0.0103,0.0105,0.0107,0,0,0,0,0,0,0,0,0,0,0,0,0,-0.011,-0.011,-0.0073,-0.0073,-0.0072,-0.0022,-0.0021,-0.002,0.0021,0.0021,0.0021,0.0022,0.0103,0.0105,0.0107,0,0,0,0,0,0,0,0,0,0,0,0,0,-0.0079,-0.011,-0.0073,-0.0047,-0.0044,-0.0022,-0.0021,-0.002,0.0021,0.0021,0.0021,0.0022,0.0102,0.0105,0.0107,0.0117,0,0,0.0116,0.0117,0,0,0,0,0,0,0,0,-0.0081,-0.0077,-0.0051,-0.0049,-0.0046,-0.0008,-0.0004,0.0027,0.0021,-0.0002,0.0022,0.0022,0.0068,0.0073,0.0084,0.0121,0.0124,0.0116,0.0118,0.0119,0.012,0,0,0,0,0,0,0,-0.0083,-0.0079,-0.0052,-0.0051,-0.0047,-0.0029,-0.0024,0.0002,0.0031,-0.0,0.0002,0.0006,0.007,0.0081,0.0086,0.0125,0.0116,0.0119,0.0121,0.0122,0.0185,0.0185,0,0,0,0,0,0,-0.0094,-0.0081,-0.0053,-0.005,-0.0064,-0.0028,-0.0023,-0.0019,0.003,0.0038,0.0005,0.0007,0.0076,0.0083,0.0089,0.0104,0.0119,0.0122,0.0124,0.0185,0.0185,0.0184,0,0,0,0,0,0,-0.0095,-0.0092,-0.0055,-0.0066,-0.006,-0.0029,-0.0024,-0.0018,-0.0008,0.0034,0.0043,0.0009,0.0076,0.0085,0.0111,0.0108,0.0123,0.0126,0.0185,0.0185,0.0185,0.0134,0,0,0,0,0,0,-0.0096,-0.0092,-0.0097,-0.0066,-0.006,-0.0049,-0.0025,-0.0018,-0.0007,-0.0004,0.004,0.0048,0.0077,0.0107,0.0114,0.0112,0.0128,0.0185,0.0185,0.0185,0.0135,0.0132,0.0129,0,0,0,0,0,-0.0098,-0.0106,-0.0097,-0.0094,-0.0066,-0.0049,-0.0044,-0.0019,-0.0008,-0.0007,0.0025,0.0047,0.0111,0.0109,0.0117,0.0116,0.0185,0.0185,0.0185,0.0137,0.0133,0.0129,0,0,0,0,0,0,-0.0125,-0.0102,-0.0092,-0.0093,-0.0076,-0.0043,-0.0043,-0.0024,0.0001,0.0005,0.0047,0.0057,0.0078,0.0104,0.01,0.0134,0.0152,0.0153,0.0112,0.0109,0.0105,0.0096,0.0131,0,0,0,0,0,-0.0134,-0.0134,-0.0108,-0.0111,-0.0104,-0.0074,-0.0066,-0.0049,-0.0022,-0.001,0.0021,0.0055,0.0084,0.0101,0.0129,0.0147,0.0176,0.0153,0.0149,0.0146,0.0144,0.0187,0.0187,0.0184,0.0184,0.0184,0,0,-0.0146,-0.0134,-0.0134,-0.0117,-0.0101,-0.0097,-0.0068,-0.0059,-0.0053,-0.0005,0.0011,0.0043,0.0086,0.0107,0.0119,0.0128,0.0161,0.0146,0.0143,0.0143,0.0187,0.0187,0.0187,0.0184,0.0184,0.0184,0,0,-0.0172,-0.016,-0.0168,-0.0157,-0.014,-0.0119,-0.012,-0.009,-0.0073,-0.0055,-0.0018,0.0013,0.0053,0.0086,0.0108,0.0104,0.014,0.0111,0.0089,0.0129,0.013,0.0131,0.0159,0.0163,0.0111,0.0111,0.0111,0,-0.0188,-0.0193,-0.0169,-0.0174,-0.0171,-0.0133,-0.0141,-0.0118,-0.0084,-0.007,-0.0058,0.001,0.0044,0.008,0.0078,0.0096,0.0121,0.0098,0.0125,0.0126,0.0128,0.0157,0.0162,0.0108,0.0109,0.0109,0.0109,0,-0.0216,-0.0222,-0.0227,-0.022,-0.0212,-0.0213,-0.0182,-0.0169,-0.0145,-0.0118,-0.0083,-0.0032,0.0009,0.0025,0.005,0.008,0.0093,0.0113,0.0132,0.0125,0.0156,0.0162,0.0105,0.0106,0.0106,0.0107,0,0,-0.0245,-0.0247,-0.025,-0.0258,-0.0238,-0.0235,-0.0224,-0.0201,-0.0192,-0.0151,-0.0134,-0.0077,-0.0046,-0.0019,0.0022,0.0059,0.009,0.0086,0.0089,0.0108,0.0172,0.0159,0.0164,0.0114,0.0115,0.0116,0.0185,0,-0.0274,-0.0303,-0.0289,-0.031,-0.0321,-0.0288,-0.0284,-0.0257,-0.0223,-0.0197,-0.0134,-0.0104,-0.0062,-0.0044,-0.0,0.0071,0.0105,0.0069,0.0181,0.0184,0.0169,0.0171,0.0119,0.019,0.0192,0.0193,0.0193,0,-0.0303,-0.0319,-0.0352,-0.036,-0.0361,-0.0367,-0.035,-0.0338,-0.0287,-0.0262,-0.0211,-0.0161,-0.0096,-0.0065,0.0054,0.0029,0.0092,0.0146,0.015,0.0161,0.0182,0.0203,0.0205,0.0204,0.0203,0.0202,0.0202,0,-0.0339,-0.036,-0.039,-0.0394,-0.0396,-0.0403,-0.0398,-0.0362,-0.0353,-0.0301,-0.0287,-0.0198,-0.0156,-0.006,0.0054,0.0056,0.018,0.0199,0.0247,0.0247,0.026,0.0259,0.0276,0.0276,0.0276,0.0275,0.0275,0,-0.0371,-0.0395,-0.0414,-0.0431,-0.0466,-0.0449,-0.0467,-0.0444,-0.0414,-0.0404,-0.0325,-0.0296,-0.0152,-0.0061,0.0041,0.0161,0.0175,0.0242,0.0266,0.0236,0.0231,0.0264,0.0262,0.0278,0.0277,0.0277,0.0276,0,-0.0401,-0.0413,-0.0453,-0.0475,-0.0486,-0.051,-0.0522,-0.0527,-0.0494,-0.0477,-0.0464,-0.0361,-0.0239,-0.0099,0.0062,0.0138,0.0255,0.0292,0.0239,0.0259,0.0297,0.0291,0.0353,0.0353,0.0353,0.0354,0.0354,0,-0.0418,-0.0444,-0.0493,-0.0525,-0.0539,-0.0572,-0.0591,-0.0571,-0.057,-0.0515,-0.0507,-0.0395,-0.0312,-0.0097,0.0047,0.0239,0.0264,0.0317,0.0317,0.0289,0.0306,0.03,0.0294,0.0354,0.0354,0.0354,0.0354,0,-0.0449,-0.0471,-0.0504,-0.0572,-0.0609,-0.0643,-0.0665,-0.0671,-0.0635,-0.0611,-0.0531,-0.0412,-0.0277,-0.0102,0.0045,0.0181,0.0281,0.0319,0.032,0.032,0.0291,0.0306,0.03,0.0354,0.0354,0.0354,0.0354,0,-0.0469,-0.0503,-0.0552,-0.0605,-0.0659,-0.0692,-0.0702,-0.0688,-0.0676,-0.0604,-0.0581,-0.0427,-0.0331,-0.0133,0.0001,0.0136,0.0172,0.021,0.0217,0.0218,0.0159,0.01,0.0124,0,0,0,0,0,-0.0482,-0.0522,-0.0581,-0.0636,-0.069,-0.0715,-0.0738,-0.0734,-0.0704,-0.0652,-0.061,-0.0481,-0.0267,-0.0177,-0.0043,-0.0002,0.0186,0.0157,0.0231,0.0357,0.0356,0.0308,0,0,0,0,0,0,-0.0492,-0.0551,-0.058,-0.0646,-0.0688,-0.0736,-0.0751,-0.0733,-0.0695,-0.0649,-0.0535,-0.0461,-0.0254,-0.0341,-0.0044,-0.0003,0.0058,0.0263,0.0265,0.0357,0.0357,0.0356,0.0307,0,0,0,0,0]}]]